Regional Weather Roundup
Issued by NWS

Home | Current Version | Previous Version | Graphics & Text | Print | Product List | Glossary On
Versions: 1 2 3 4 5 6 7 8 9 10 11 12 13 14 15 16 17 18 19 20 21 22 23 24 25 26 27
000
ASUS45 KCYS 231210
RWRWY

WYOMING REGIONAL WEATHER ROUNDUP
NATIONAL WEATHER SERVICE CHEYENNE WY
600 AM MDT MON APR 23 2018

NOTE:  "FAIR" INDICATES FEW OR NO CLOUDS BELOW 12,000 FEET
WITH NO SIGNIFICANT WEATHER AND/OR OBSTRUCTIONS TO VISIBILITY.

WYZ001-231300-
YELLOWSTONE NATIONAL PARK

CITY           SKY/WX    TMP DP  RH WIND       PRES   REMARKS
LK YELLOWSTONE   N/A     32  31  96 CALM      30.13S
6HR MIN TEMP:  30; 6HR MAX TEMP:  37; 6HR PCP:  0.10;

W YELLOWSTONE  NOT AVBL

$$
WYZ002>013-054>058-071-098>099-231300-
NORTHERN WYOMING

CITY           SKY/WX    TMP DP  RH WIND       PRES   REMARKS
JACKSON        RAIN      36  34  92 E9        30.10F WCI  29
CODY           CLOUDY    41  31  67 NW21G30   30.11R
GREYBULL       FAIR      47  33  58 NW25      29.99R
6HR MIN TEMP:  47; 6HR MAX TEMP:  55;

WORLAND        FAIR      46  31  55 NW9       30.03R
6HR MIN TEMP:  46; 6HR MAX TEMP:  54;

SHERIDAN       FAIR      45  33  63 NW15      30.06R
6HR MIN TEMP:  42; 6HR MAX TEMP:  50;

BUFFALO        FAIR      45  32  60 N13       30.05R
6HR MIN TEMP:  44; 6HR MAX TEMP:  49;

GILLETTE       FAIR      40  35  83 N8        30.03R WCI  34
6HR MIN TEMP:  38; 6HR MAX TEMP:  49;

HULETT         FAIR      46  36  66 CALM      30.08
NEWCASTLE      FAIR      41  32  70 CALM      30.07F

$$
WYZ014>020-022>026-101>103-231300-
CENTRAL WYOMING

CITY           SKY/WX    TMP DP  RH WIND       PRES   REMARKS
BIG PINEY      CLOUDY    43  30  60 N28G35    30.07R
6HR MIN TEMP:  26; 6HR MAX TEMP:  44;

PINEDALE       CLOUDY    37  28  70 W13       30.07F WCI  29
DUBOIS         DRIZZLE   37  32  81 NW13G20   30.05R WCI  29
LANDER         FAIR      45  31  58 NW9       29.98R
6HR MIN TEMP:  43; 6HR MAX TEMP:  55;

RIVERTON       FAIR      44  30  57 N12       29.97F
6HR MIN TEMP:  38; 6HR MAX TEMP:  53;

CASPER         MOCLDY    33  32  96 CALM      30.01S
6HR MIN TEMP:  32; 6HR MAX TEMP:  43;

DOUGLAS        FAIR      38  37  97 SE12      30.03F WCI  30
6HR MIN TEMP:  38; 6HR MAX TEMP:  45;


$$
WYZ021-027>030-104>119-231300-
SOUTHERN WYOMING

CITY           SKY/WX    TMP DP  RH WIND       PRES   REMARKS
EVANSTON       CLOUDY    41  35  79 NW23G32   30.13R
6HR MIN TEMP:  41; 6HR MAX TEMP:  49;

KEMMERER       FAIR      37  32  81 NW21G29   30.10R WCI  27
FORT BRIDGER   FAIR      43  26  50 W8        30.08R
ROCK SPRINGS   FAIR      41  25  53 N5        30.04R
6HR MIN TEMP:  41; 6HR MAX TEMP:  51;

DIXON          FAIR      35  29  79 CALM      30.11R
RAWLINS          N/A    N/A N/A N/A MISG      30.06S
SARATOGA       PTSUNNY   43  30  61 SE17      30.08S
LARAMIE        CLOUDY    37  33  85 S10       30.09F WCI  30
6HR MIN TEMP:  35; 6HR MAX TEMP:  42;

CHEYENNE       FAIR      34  33  96 W7        30.09S WCI  28
6HR MIN TEMP:  33; 6HR MAX TEMP:  42;

TORRINGTON     FAIR      35  35 100 E10       30.06F WCI  27
6HR MIN TEMP:  34; 6HR MAX TEMP:  41;

PINE BLUFFS    FAIR      30  30 100 MISG      30.09S

$$




USA.gov is the U.S. government's official web portal to all federal, state and local government web resources and services.